Wind_Speed
28 29 30 33 34 35 37 37 39 41 41 41 43 44 45 46 46 47 48 48 48 49 49 49 49 50 49 48 47 46 45 45 46 46 46 47 47 47
27 29 30 32 34 35 36 38 40 41 42 43 43 44 45 46 46 47 47 46 47 47 47 47 47 46 45 44 43 42 43 43 44 44 44 44 44 44
28 30 31 32 34 35 36 38 39 40 41 41 42 44 45 46 46 45 45 45 44 44 44 43 42 41 41 40 40 40 41 41 41 41 41 41 41 40
31 32 33 34 35 36 37 38 39 39 40 41 42 43 43 43 43 43 43 42 40 39 39 37 37 37 37 37 38 38 38 37 37 37 37 37 37 37
33 33 34 35 36 36 37 38 38 39 40 41 41 41 41 41 40 40 39 37 35 34 33 33 33 34 34 34 34 34 33 33 33 32 32 32 33 34
33 34 34 35 36 36 36 37 38 38 39 39 39 39 38 38 37 35 33 32 31 31 30 30 30 31 31 31 31 30 29 29 29 29 29 30 31 31
33 34 34 35 35 35 35 36 36 37 37 37 36 36 35 34 32 30 29 28 28 28 27 27 28 28 28 28 28 27 27 26 26 27 28 28 29 29
33 33 34 34 34 34 34 35 35 35 34 34 33 32 31 29 28 26 25 25 25 25 25 25 25 25 25 25 25 25 25 25 26 26 27 27 27 26
32 32 32 32 33 33 33 33 33 32 32 31 30 29 27 26 25 24 24 23 23 22 22 23 23 23 24 24 24 24 24 24 25 26 26 25 24 24
31 31 31 31 31 31 31 30 30 29 29 28 27 25 24 23 22 22 21 21 20 20 20 21 21 21 22 22 23 23 23 23 24 24 24 23 22 22
29 29 29 29 29 29 28 28 27 27 26 25 24 22 21 20 20 19 18 18 18 18 18 19 19 19 20 20 20 21 21 21 22 22 22 22 21 21
27 27 27 27 27 26 26 25 25 24 22 21 21 20 19 19 18 17 17 17 16 16 17 17 17 17 17 17 18 19 19 20 20 20 20 21 21 21
24 24 24 24 23 23 22 22 21 20 20 19 19 19 18 17 16 16 15 15 15 15 15 15 15 15 15 15 16 17 17 18 19 19 20 20 21 22
22 21 21 21 20 20 19 18 18 18 17 17 17 16 16 15 14 13 13 13 13 14 14 13 13 13 13 14 15 16 17 17 18 18 19 20 21 22
19 19 19 18 18 18 17 17 16 16 15 15 15 14 13 13 12 12 12 12 12 12 11 11 10 10 12 13 14 15 16 17 17 18 19 20 21 21
17 17 16 16 16 16 16 15 15 15 14 14 13 13 12 11 11 11 10 10 10 9 9 8 8 9 10 11 13 14 15 16 17 17 18 19 20 22
15 15 15 15 15 15 15 15 14 14 13 13 12 11 10 10 10 9 9 8 7 7 6 6 6 7 8 10 12 13 14 15 16 17 18 19 20 21
13 14 14 14 14 14 14 14 13 13 12 11 10 9 9 8 8 7 7 6 5 5 5 5 5 6 8 9 11 12 13 14 15 17 18 19 20 21
12 12 12 12 13 13 13 12 12 11 10 9 9 8 7 7 6 6 5 4 4 3 3 4 5 6 7 9 10 12 13 14 15 16 17 19 20 20
10 11 11 11 11 11 11 11 10 9 8 8 7 7 6 5 5 4 3 3 3 3 3 4 5 6 7 9 10 11 13 14 15 16 17 18 19 20
9 9 10 10 10 10 10 9 8 8 7 6 6 5 4 4 3 3 2 2 3 4 5 5 6 7 8 9 10 11 12 14 15 16 17 18 19 20
9 9 9 9 9 9 9 8 7 6 6 5 4 3 2 2 2 2 2 3 4 4 5 6 7 8 8 9 10 11 12 14 15 16 18 19 20 21
9 9 9 9 9 8 8 7 6 5 5 4 3 2 2 2 2 3 3 4 4 5 6 6 7 8 8 9 10 11 12 13 14 16 17 18 20 21
Wind_Direction
270 273 275 275 277 281 284 286 288 290 292 293 294 295 295 296 296 297 298 298 298 298 298 298 298 298 297 297 296 296 295 294 293 291 290 289 288 287
275 277 278 278 281 284 287 289 291 292 294 295 296 297 298 298 298 298 299 299 300 300 300 300 300 299 299 299 298 298 297 296 295 294 293 292 291 291
277 279 281 282 285 288 291 292 293 293 294 296 297 298 299 299 299 299 300 300 300 301 301 302 302 302 302 301 301 300 300 299 298 297 295 295 294 294
280 283 285 287 289 291 292 293 293 295 296 297 298 298 298 299 300 300 301 302 303 303 304 305 306 306 306 305 305 305 304 303 302 301 300 299 299 298
283 285 287 289 290 291 292 293 295 296 298 298 298 299 299 300 301 302 304 305 306 307 308 309 310 311 312 312 311 311 310 309 308 307 306 306 306 305
285 287 288 289 291 293 293 294 296 297 298 299 299 300 300 301 302 304 305 307 309 311 312 313 315 316 317 317 317 316 316 316 315 314 314 314 314 313
286 288 289 290 292 293 295 296 296 297 298 300 301 301 302 303 303 304 305 308 311 314 315 316 318 319 320 321 322 321 321 322 322 322 322 322 321 319
287 288 290 292 293 294 296 296 297 298 300 300 301 302 303 303 304 306 307 309 312 314 315 318 321 323 324 324 325 325 326 327 328 328 328 328 328 327
288 290 291 293 293 295 296 296 298 300 300 300 301 302 303 304 304 305 308 311 313 314 317 320 322 324 326 327 328 330 331 332 333 334 334 334 335 336
289 290 291 292 294 295 296 298 299 300 300 300 301 302 302 303 304 307 310 313 314 316 319 321 323 325 327 329 331 333 335 337 339 340 342 343 344 344
289 291 292 293 295 296 297 298 298 299 300 300 300 301 302 304 306 309 312 314 315 317 320 322 324 327 330 332 333 335 338 342 344 347 349 351 351 352
290 292 293 294 295 296 297 297 298 299 300 301 301 301 302 305 306 308 312 313 316 318 320 323 325 328 332 335 338 341 344 347 350 352 355 358 358 360
291 293 294 296 297 298 299 299 300 301 302 302 302 302 302 304 306 309 311 312 314 318 320 323 326 330 335 341 346 348 350 352 355 358 2 4 6 7
291 293 295 297 298 299 301 302 302 303 303 303 303 303 304 305 306 307 308 309 312 317 322 325 329 334 340 347 351 355 356 358 0 3 6 8 10 11
292 294 296 298 299 300 301 302 303 305 305 305 305 305 306 307 307 308 309 311 314 319 323 326 331 339 345 351 354 357 1 3 5 7 10 13 15 16
295 297 299 301 302 303 305 305 305 306 305 304 305 306 307 309 310 310 311 312 314 319 324 330 337 343 349 354 357 1 4 7 10 14 17 20 20 20
297 300 301 303 304 306 306 306 306 305 305 305 307 307 308 310 311 310 311 313 316 322 329 336 344 350 356 0 3 7 11 15 17 19 21 22 21 21
301 302 303 304 305 306 307 307 306 306 307 308 308 308 309 312 312 311 314 317 321 326 334 344 356 5 8 9 12 15 18 20 21 21 21 21 21 21
306 307 307 308 309 310 310 310 309 309 310 311 310 310 310 314 315 317 320 326 334 345 360 11 16 17 17 19 20 20 21 22 23 21 20 19 19 19
313 314 314 315 316 316 316 316 315 315 315 314 313 312 314 318 322 328 336 350 10 27 34 33 29 27 27 26 23 20 20 21 21 20 19 18 18 17
325 326 325 325 325 325 325 324 323 321 321 320 317 316 319 325 337 352 13 34 44 49 47 42 36 34 32 29 25 22 20 19 19 18 17 15 14 13
340 339 338 338 338 337 337 335 333 332 331 331 330 331 338 351 9 26 52 63 61 56 51 44 39 36 32 29 25 23 21 18 16 14 12 11 9 9
354 353 352 352 352 351 351 350 350 351 353 356 1 10 25 44 51 63 75 74 63 55 49 44 40 35 31 26 22 20 18 15 13 10 7 6 5 4
Height
5799 5798 5798 5798 5797 5796 5794 5793 5791 5789 5788 5786 5783 5780 5777 5773 5770 5766 5763 5758 5754 5750 5745 5741 5736 5731 5727 5722 5718 5714 5710 5706 5702 5698 5694 5690 5687 5683
5792 5792 5791 5791 5790 5788 5787 5785 5783 5781 5779 5776 5774 5770 5766 5763 5759 5755 5752 5747 5743 5739 5734 5729 5724 5720 5715 5711 5706 5702 5698 5694 5690 5686 5681 5677 5673 5669
5786 5785 5784 5784 5782 5781 5779 5777 5775 5772 5770 5767 5764 5760 5757 5753 5749 5745 5741 5737 5732 5728 5723 5718 5714 5709 5704 5700 5696 5691 5687 5682 5678 5674 5670 5666 5662 5658
5779 5778 5777 5776 5774 5773 5771 5769 5766 5763 5761 5758 5754 5751 5747 5743 5739 5735 5731 5727 5723 5718 5714 5709 5705 5700 5695 5690 5686 5681 5677 5672 5668 5664 5660 5656 5652 5647
5772 5771 5770 5768 5767 5765 5762 5760 5757 5755 5752 5748 5745 5742 5738 5734 5730 5726 5722 5717 5714 5711 5706 5701 5697 5692 5687 5683 5678 5673 5669 5665 5660 5656 5651 5647 5643 5638
5765 5764 5762 5760 5759 5757 5754 5752 5749 5746 5743 5739 5736 5733 5729 5725 5722 5718 5714 5710 5707 5703 5699 5695 5691 5686 5681 5676 5672 5667 5663 5658 5654 5649 5645 5640 5635 5630
5757 5756 5754 5753 5751 5748 5746 5743 5740 5738 5734 5731 5728 5724 5721 5717 5714 5710 5707 5704 5700 5697 5693 5689 5686 5681 5676 5671 5667 5662 5658 5653 5649 5644 5639 5634 5629 5624
5750 5748 5746 5744 5743 5740 5738 5735 5732 5729 5726 5723 5720 5717 5713 5710 5707 5704 5701 5699 5695 5692 5688 5684 5680 5676 5672 5667 5663 5658 5654 5649 5645 5640 5635 5630 5624 5619
5742 5741 5739 5737 5735 5732 5730 5727 5724 5721 5718 5716 5713 5710 5707 5704 5702 5699 5696 5693 5690 5687 5683 5680 5676 5672 5668 5664 5659 5655 5650 5646 5641 5636 5631 5626 5621 5615
5735 5733 5731 5729 5727 5725 5722 5719 5717 5714 5711 5709 5706 5704 5701 5699 5696 5694 5691 5688 5685 5682 5679 5676 5672 5669 5665 5661 5657 5652 5648 5643 5639 5634 5629 5623 5618 5613
5727 5725 5724 5722 5719 5717 5715 5713 5711 5708 5705 5703 5700 5698 5696 5694 5691 5689 5687 5684 5682 5679 5676 5673 5670 5666 5663 5659 5655 5650 5646 5641 5637 5632 5627 5622 5617 5612
5720 5718 5717 5715 5713 5711 5709 5707 5704 5702 5700 5697 5695 5693 5691 5689 5687 5685 5683 5681 5678 5676 5673 5670 5667 5664 5661 5657 5653 5649 5645 5640 5636 5631 5626 5621 5616 5611
5714 5712 5711 5709 5707 5705 5703 5701 5698 5696 5694 5692 5690 5688 5687 5685 5683 5681 5679 5677 5675 5673 5670 5668 5665 5662 5659 5655 5652 5648 5644 5640 5635 5631 5626 5621 5616 5612
5708 5707 5706 5704 5702 5700 5698 5696 5694 5692 5690 5688 5686 5684 5683 5681 5679 5677 5676 5674 5672 5670 5668 5665 5663 5660 5657 5654 5651 5647 5643 5639 5635 5631 5627 5622 5617 5613
5703 5702 5701 5699 5697 5695 5693 5691 5690 5688 5686 5685 5683 5681 5679 5678 5676 5674 5673 5671 5669 5668 5665 5663 5661 5659 5656 5653 5650 5647 5644 5640 5636 5632 5627 5623 5619 5614
5699 5697 5696 5695 5693 5691 5689 5688 5686 5684 5683 5681 5679 5678 5676 5675 5673 5672 5670 5669 5667 5666 5664 5662 5660 5658 5656 5653 5650 5647 5644 5640 5637 5633 5629 5625 5620 5616
5695 5693 5692 5691 5689 5688 5686 5684 5682 5681 5679 5678 5676 5675 5673 5672 5671 5670 5668 5667 5666 5664 5663 5661 5659 5658 5656 5653 5651 5648 5645 5641 5638 5634 5630 5627 5623 5619
5691 5690 5689 5687 5686 5684 5682 5681 5679 5678 5676 5675 5673 5672 5671 5670 5669 5668 5667 5666 5665 5663 5662 5661 5659 5658 5656 5654 5652 5649 5646 5643 5640 5636 5633 5629 5625 5621
5688 5687 5685 5684 5682 5681 5679 5678 5676 5675 5673 5672 5671 5670 5669 5668 5667 5666 5665 5664 5663 5662 5661 5660 5659 5658 5656 5654 5652 5650 5647 5644 5641 5638 5635 5631 5627 5623
5686 5684 5683 5681 5680 5678 5677 5675 5673 5672 5671 5670 5669 5668 5667 5667 5666 5665 5664 5664 5663 5662 5661 5660 5659 5658 5656 5655 5653 5651 5648 5645 5642 5639 5636 5633 5629 5625
5684 5682 5681 5679 5678 5676 5674 5673 5671 5670 5669 5668 5667 5667 5666 5666 5665 5664 5664 5663 5663 5662 5662 5661 5660 5658 5657 5655 5654 5652 5649 5646 5643 5640 5637 5634 5630 5627
5683 5681 5679 5678 5676 5674 5673 5671 5670 5669 5668 5667 5666 5666 5665 5665 5665 5664 5664 5664 5663 5663 5662 5661 5660 5659 5658 5656 5654 5652 5650 5647 5644 5641 5638 5635 5631 5627
5682 5680 5679 5677 5675 5673 5672 5670 5669 5668 5667 5666 5666 5666 5665 5665 5665 5665 5664 5664 5664 5663 5663 5662 5661 5660 5658 5657 5655 5653 5651 5648 5646 5643 5639 5636 5632 5628